Location: Unspecified
(33.6682°S, 0.0000°E)
Time: 14:25:38
(UTC+00:00)

Vanguard 1 - Pass Details

Date: 25 June 2019
Orbit: 653 x 3830 km, 34.3° (Epoch: 15 July)

Event Time Altitude Azimuth Distance (km) Brightness Sun altitude
Rises 18:50:46 0° 256° (WSW) 4,928 14.7 -22.3°
Reaches altitude 10° 18:53:24 10° 258° (WSW) 4,252 14.2 -22.8°
Maximum altitude 19:05:54 72° 339° (NNW) 2,895 12.3 -25.3°
Enters shadow 19:25:01 15° 57° (ENE) 6,331 13.7 -29.2°
